Milan, Italy

1:38 AM CEST on July 26, 2016 (GMT +0200)
Malpensa

Weather History for LIMC - October, 2012

Change the Weather History Date:

Thursday, October 25, 2012

  Actual Average Record
Temperature  
Mean Temperature 54 °F -  
Max Temperature 66 °F 54 °F 68 °F (2006)
Min Temperature 41 °F 35 °F 30 °F (2003)
Degree Days  
Heating Degree Days 12    
Growing Degree Days 4 (Base 50)    
Moisture  
Dew Point 47 °F    
Average Humidity 83    
Maximum Humidity 100    
Minimum Humidity 49    
Precipitation  
Precipitation 0.00 in 0.14 in - ()
Sea Level Pressure  
Sea Level Pressure 29.94 in    
Wind  
Wind Speed 1 mph ()    
Max Wind Speed 4 mph    
Max Gust Speed -    
Visibility 2.9 miles    
Events Fog    
Averages and records for this station are not official NWS values.
T = Trace of Precipitation, MM = Missing Value Source: Averaged Metar Reports

Daily Weather History Graph

Daily Weather History Graph

Search for Another Location

Airport or City:

Trip Planner

Search our weather history database for the weather conditions in past years. The results will help you decide how hot, cold, wet, or windy it might be!

Date:

Astronomy

Oct. 25, 2012 Rise Set
Actual Time 7:55 AM CEST 6:22 PM CEST
Civil Twilight 7:24 AM CEST 6:52 PM CEST
Nautical Twilight 6:50 AM CEST 7:27 PM CEST
Astronomical Twilight 6:15 AM CEST 8:01 PM CEST
Moon 4:10 PM CEST 3:23 AM CEST
Length of Visible Light 11h 27m
Length of Day
10h 26m
Waxing Gibbous, 82% of the Moon is Illuminated
Oct 25
Waxing Gibbous
Oct 29
Full
Nov 7
Last Quarter
Nov 13
New
Nov 20
First Quarter

Hourly Weather History & Observations

Time (CEST) Temp. Dew Point Humidity Pressure Visibility Wind Dir Wind Speed Gust Speed Precip Events Conditions
12:20 AM 44.6 °F 44.6 °F 100% 30.01 in 3.7 mi Calm Calm - N/A   Unknown
12:50 AM 44.6 °F 44.6 °F 100% 30.01 in 3.7 mi Calm Calm - N/A   Unknown
1:20 AM 44.6 °F 44.6 °F 100% 30.01 in 3.7 mi North 2.3 mph - N/A   Unknown
1:50 AM 44.6 °F 44.6 °F 100% 30.01 in 3.7 mi North 2.3 mph - N/A   Unknown
2:20 AM 44.6 °F 44.6 °F 100% 30.01 in 3.1 mi Calm Calm - N/A   Mist
2:50 AM 42.8 °F 42.8 °F 100% 30.01 in 3.1 mi Calm Calm - N/A   Mist
3:20 AM 44.6 °F 42.8 °F 93% 30.01 in 2.8 mi North 1.2 mph - N/A   Mist
3:50 AM 42.8 °F 41.0 °F 93% 30.01 in 2.5 mi North 1.2 mph - N/A   Mist
4:20 AM 42.8 °F 42.8 °F 100% 29.98 in 2.5 mi Calm Calm - N/A   Mist
4:50 AM 42.8 °F 42.8 °F 100% 29.98 in 2.5 mi North 1.2 mph - N/A   Mist
5:20 AM 41.0 °F 41.0 °F 100% 29.98 in 1.9 mi North 1.2 mph - N/A   Mist
5:50 AM 42.8 °F 42.8 °F 100% 29.98 in 1.9 mi Variable 1.2 mph - N/A Fog Patches of Fog
6:20 AM 42.8 °F 42.8 °F 100% 29.98 in 1.9 mi North 2.3 mph - N/A Fog Patches of Fog
6:50 AM 41.0 °F 41.0 °F 100% 29.98 in 1.9 mi North 2.3 mph - N/A   Mist
7:20 AM 44.6 °F 44.6 °F 100% 29.98 in 1.6 mi North 2.3 mph - N/A Fog Patches of Fog
7:50 AM 44.6 °F 44.6 °F 100% 29.98 in 1.8 mi Variable 2.3 mph - N/A Fog Patches of Fog
8:20 AM 42.8 °F 42.8 °F 100% 29.98 in 1.8 mi Calm Calm - N/A Fog Patches of Fog
8:50 AM 44.6 °F 44.6 °F 100% 29.98 in 1.8 mi North 2.3 mph - N/A Fog Patches of Fog
9:20 AM 50.0 °F 50.0 °F 100% 29.98 in 1.9 mi Variable 1.2 mph - N/A   Mist
9:50 AM 53.6 °F 51.8 °F 94% 29.98 in 1.9 mi Variable 1.2 mph - N/A   Mist
10:20 AM 55.4 °F 51.8 °F 88% 29.98 in 2.2 mi Variable 2.3 mph - N/A   Mist
10:50 AM 57.2 °F 51.8 °F 82% 29.98 in 2.2 mi Calm Calm - N/A   Mist
11:20 AM 59.0 °F 51.8 °F 77% 29.98 in 2.2 mi Calm Calm - N/A   Mist
11:50 AM 60.8 °F 51.8 °F 72% 29.98 in 2.2 mi Variable 1.2 mph - N/A   Mist
12:50 PM 62.6 °F 53.6 °F 72% 29.95 in 2.8 mi Variable 2.3 mph - N/A   Mist
1:50 PM 64.4 °F 50.0 °F 59% 29.92 in 4.3 mi Variable 2.3 mph - N/A   Unknown
2:20 PM 64.4 °F 50.0 °F 59% 29.92 in 4.3 mi Variable 2.3 mph - N/A   Unknown
2:50 PM 66.2 °F 48.2 °F 52% 29.92 in 3.7 mi Variable 2.3 mph - N/A   Unknown
3:20 PM 66.2 °F 46.4 °F 49% 29.89 in 3.7 mi Variable 2.3 mph - N/A   Unknown
3:50 PM 66.2 °F 46.4 °F 49% 29.89 in 3.7 mi Variable 1.2 mph - N/A   Unknown
4:20 PM 66.2 °F 46.4 °F 49% 29.89 in 3.7 mi Variable 1.2 mph - N/A   Unknown
4:50 PM 66.2 °F 46.4 °F 49% 29.89 in 3.7 mi Variable 1.2 mph - N/A   Unknown
5:20 PM 64.4 °F 48.2 °F 56% 29.86 in 3.7 mi Calm Calm - N/A   Unknown
5:50 PM 62.6 °F 46.4 °F 55% 29.86 in 3.7 mi Variable 1.2 mph - N/A   Unknown
6:20 PM 60.8 °F 46.4 °F 59% 29.86 in 3.1 mi Calm Calm - N/A   Mist
6:50 PM 55.4 °F 48.2 °F 77% 29.86 in 3.1 mi Calm Calm - N/A   Mist
7:20 PM 55.4 °F 48.2 °F 77% 29.89 in 3.1 mi Calm Calm - N/A   Mist
7:50 PM 55.4 °F 50.0 °F 82% 29.89 in 3.1 mi Calm Calm - N/A   Scattered Clouds
8:20 PM 57.2 °F 50.0 °F 77% 29.89 in 3.1 mi Calm Calm - N/A   Mostly Cloudy
8:50 PM 55.4 °F 50.0 °F 82% 29.89 in 3.1 mi North 1.2 mph - N/A   Mostly Cloudy
9:20 PM 55.4 °F 50.0 °F 82% 29.89 in 3.7 mi Variable 1.2 mph - N/A   Mostly Cloudy
9:50 PM 55.4 °F 50.0 °F 82% 29.89 in 3.1 mi Variable 1.2 mph - N/A   Mostly Cloudy
10:20 PM 57.2 °F 48.2 °F 72% 29.89 in 3.1 mi Variable 2.3 mph - N/A   Mostly Cloudy
10:50 PM 53.6 °F 50.0 °F 88% 29.89 in 3.1 mi North 3.5 mph - N/A   Mist
11:20 PM 53.6 °F 50.0 °F 88% 29.89 in 3.1 mi Variable 1.2 mph - N/A   Mist
11:50 PM 51.8 °F 50.0 °F 94% 29.89 in 3.1 mi Variable 1.2 mph - N/A   Mostly Cloudy